When you browse on this site, cookies collect data to enhance your experience and personalize the content and advertising you see.
Visit our Privacy Policy to learn more. By continuing to use the site, you agree to this use of cookies and data.
  • In Hungary
  • List of Countries
  • For 7 days
  • Water Temperature
  • Weather Map
  • News
  • Weather Widgets
  • user-avatar
    Login

    Hourly Weather Razgrad

    Today, 3 June, Wednesday

    Time Temperature Precipitation Wind Pressure Humidity
    00:00 +9°C° 0 mm 1 mps 736 mmHg 92%
    01:00 +9°C° 0 mm 1 mps 736 mmHg 93%
    02:00 +8°C° 0 mm 1 mps 736 mmHg 93%
    03:00 +8°C° 0 mm 1 mps 736 mmHg 93%
    04:00 +8°C° 0 mm 1 mps 736 mmHg 93%
    05:00 +8°C° 0 mm 1 mps 735 mmHg 94%
    06:00 +10°C° 0 mm 1 mps 736 mmHg 89%
    07:00 +10°C° 0 mm 2 mps 736 mmHg 84%
    08:00 +14°C° 0 mm 2 mps 736 mmHg 78%
    09:00 +15°C° 0 mm 2 mps 736 mmHg 72%
    10:00 +16°C° 0 mm 2 mps 736 mmHg 65%
    11:00 +18°C° 0 mm 3 mps 736 mmHg 59%
    12:00 +18°C° 0.1 mm 3 mps 736 mmHg 56%
    13:00 +19°C° 0.1 mm 2 mps 736 mmHg 53%
    14:00 +20°C° 0.1 mm 2 mps 736 mmHg 50%
    15:00 +20°C° 0.1 mm 2 mps 735 mmHg 53%
    16:00 +19°C° 0.1 mm 2 mps 735 mmHg 57%
    17:00 +19°C° 0.1 mm 2 mps 735 mmHg 60%
    18:00 +17°C° 0.2 mm 2 mps 735 mmHg 67%
    19:00 +15°C° 0.2 mm 2 mps 735 mmHg 74%
    20:00 +14°C° 0.2 mm 2 mps 735 mmHg 81%
    21:00 +13°C° 0 mm 2 mps 735 mmHg 82%
    22:00 +12°C° 0 mm 2 mps 735 mmHg 83%
    23:00 +12°C° 0 mm 2 mps 735 mmHg 83%

    Tomorrow, 4 June, Thursday

    Time Temperature Precipitation Wind Pressure Humidity
    00:00 +12°C° 0 mm 2 mps 735 mmHg 83%
    01:00 +11°C° 0 mm 1 mps 735 mmHg 83%
    02:00 +11°C° 0 mm 1 mps 735 mmHg 83%
    03:00 +11°C° 0 mm 1 mps 735 mmHg 83%
    04:00 +11°C° 0 mm 1 mps 735 mmHg 82%
    05:00 +11°C° 0 mm 1 mps 735 mmHg 82%
    06:00 +13°C° 0 mm 1 mps 735 mmHg 77%
    07:00 +16°C° 0 mm 2 mps 735 mmHg 72%
    08:00 +18°C° 0 mm 2 mps 736 mmHg 67%
    09:00 +19°C° 0 mm 3 mps 736 mmHg 62%
    10:00 +21°C° 0 mm 3 mps 736 mmHg 57%
    11:00 +23°C° 0 mm 4 mps 736 mmHg 52%
    12:00 +23°C° 0 mm 4 mps 736 mmHg 51%
    13:00 +25°C° 0 mm 4 mps 736 mmHg 51%
    14:00 +26°C° 0 mm 4 mps 736 mmHg 50%
    15:00 +26°C° 0 mm 4 mps 736 mmHg 52%
    16:00 +26°C° 0 mm 4 mps 736 mmHg 54%
    17:00 +26°C° 0 mm 3 mps 736 mmHg 56%
    18:00 +22°C° 0 mm 3 mps 736 mmHg 63%
    19:00 +20°C° 0 mm 3 mps 736 mmHg 69%
    20:00 +18°C° 0 mm 3 mps 736 mmHg 76%
    21:00 +18°C° 0 mm 3 mps 736 mmHg 78%
    22:00 +17°C° 0 mm 3 mps 737 mmHg 81%
    23:00 +16°C° 0 mm 2 mps 737 mmHg 83%

    Day after tomorrow, 5 June, Friday

    Time Temperature Precipitation Wind Pressure Humidity
    00:00 +16°C° 0 mm 2 mps 737 mmHg 84%
    01:00 +16°C° 0 mm 2 mps 737 mmHg 84%
    02:00 +15°C° 0 mm 2 mps 737 mmHg 84%
    03:00 +15°C° 0 mm 2 mps 737 mmHg 85%
    04:00 +15°C° 0 mm 2 mps 737 mmHg 85%
    05:00 +15°C° 0 mm 2 mps 736 mmHg 85%
    06:00 +17°C° 0 mm 2 mps 737 mmHg 80%
    07:00 +19°C° 0 mm 2 mps 737 mmHg 75%
    08:00 +21°C° 0 mm 2 mps 737 mmHg 70%
    09:00 +24°C° 0 mm 3 mps 737 mmHg 65%
    10:00 +25°C° 0 mm 4 mps 737 mmHg 60%
    11:00 +27°C° 0 mm 5 mps 737 mmHg 55%
    12:00 +27°C° 0 mm 6 mps 737 mmHg 54%
    13:00 +27°C° 0 mm 6 mps 736 mmHg 54%
    14:00 +28°C° 0 mm 7 mps 736 mmHg 54%
    15:00 +27°C° 0 mm 7 mps 736 mmHg 56%
    16:00 +26°C° 0 mm 7 mps 735 mmHg 59%
    17:00 +26°C° 0 mm 6 mps 735 mmHg 62%
    18:00 +23°C° 0 mm 6 mps 735 mmHg 63%
    19:00 +21°C° 0 mm 6 mps 735 mmHg 65%
    20:00 +20°C° 0 mm 6 mps 735 mmHg 66%
    21:00 +19°C° 0 mm 5 mps 735 mmHg 66%
    22:00 +19°C° 0 mm 5 mps 736 mmHg 66%
    23:00 +17°C° 0 mm 5 mps 736 mmHg 66%

    6 June, Saturday

    Time Temperature Precipitation Wind Pressure Humidity
    00:00 +17°C° 0 mm 4 mps 736 mmHg 70%
    01:00 +15°C° 0 mm 4 mps 736 mmHg 73%
    02:00 +16°C° 0 mm 3 mps 736 mmHg 76%
    03:00 +16°C° 0 mm 3 mps 736 mmHg 78%
    04:00 +16°C° 0 mm 2 mps 736 mmHg 79%
    05:00 +16°C° 0 mm 2 mps 737 mmHg 80%
    06:00 +18°C° 0 mm 2 mps 737 mmHg 76%
    07:00 +21°C° 0 mm 1 mps 737 mmHg 72%
    08:00 +22°C° 0 mm 1 mps 738 mmHg 67%
    09:00 +24°C° 0 mm 1 mps 738 mmHg 61%
    10:00 +25°C° 0 mm 2 mps 738 mmHg 54%
    11:00 +27°C° 0 mm 3 mps 738 mmHg 47%
    12:00 +27°C° 0 mm 3 mps 738 mmHg 48%
    13:00 +26°C° 0 mm 3 mps 738 mmHg 50%
    14:00 +26°C° 0 mm 3 mps 738 mmHg 51%
    15:00 +26°C° 0 mm 4 mps 738 mmHg 53%
    16:00 +25°C° 0 mm 4 mps 737 mmHg 55%
    17:00 +25°C° 0 mm 4 mps 737 mmHg 57%
    18:00 +22°C° 0 mm 4 mps 737 mmHg 62%
    19:00 +20°C° 0 mm 3 mps 737 mmHg 67%
    20:00 +18°C° 0 mm 2 mps 737 mmHg 72%
    21:00 +18°C° 0 mm 2 mps 738 mmHg 73%
    22:00 +18°C° 0 mm 2 mps 738 mmHg 73%
    23:00 +17°C° 0 mm 2 mps 738 mmHg 74%

    7 June, Sunday

    Time Temperature Precipitation Wind Pressure Humidity
    00:00 +17°C° 0 mm 2 mps 738 mmHg 76%
    01:00 +16°C° 0 mm 2 mps 738 mmHg 77%
    02:00 +16°C° 0 mm 2 mps 738 mmHg 79%
    03:00 +15°C° 0 mm 2 mps 738 mmHg 78%
    04:00 +15°C° 0 mm 1 mps 738 mmHg 78%
    05:00 +15°C° 0 mm 1 mps 738 mmHg 78%
    06:00 +18°C° 0 mm 1 mps 738 mmHg 72%
    07:00 +20°C° 0 mm 1 mps 738 mmHg 67%
    08:00 +22°C° 0 mm 1 mps 738 mmHg 61%
    09:00 +23°C° 0 mm 1 mps 738 mmHg 59%
    10:00 +24°C° 0 mm 2 mps 738 mmHg 56%
    11:00 +26°C° 0 mm 2 mps 738 mmHg 54%
    12:00 +26°C° 0 mm 2 mps 738 mmHg 52%
    13:00 +27°C° 0 mm 2 mps 738 mmHg 51%
    14:00 +28°C° 0 mm 2 mps 738 mmHg 50%
    15:00 +27°C° 0 mm 2 mps 737 mmHg 51%
    16:00 +27°C° 0 mm 1 mps 737 mmHg 52%
    17:00 +27°C° 0 mm 1 mps 737 mmHg 52%
    18:00 +25°C° 0 mm 1 mps 737 mmHg 59%
    19:00 +23°C° 0 mm 1 mps 737 mmHg 66%
    20:00 +19°C° 0 mm 0 mps 737 mmHg 72%
    21:00 +19°C° 0 mm 0 mps 737 mmHg 74%
    22:00 +18°C° 0 mm 0 mps 738 mmHg 76%
    23:00 +18°C° 0 mm 0 mps 738 mmHg 78%

    8 June, Monday

    Time Temperature Precipitation Wind Pressure Humidity
    00:00 +20°C° 0 mm 1 mps 738 mmHg 79%
    01:00 +19°C° 0 mm 1 mps 738 mmHg 80%
    02:00 +19°C° 0 mm 1 mps 737 mmHg 81%
    03:00 +19°C° 0 mm 1 mps 737 mmHg 82%
    04:00 +19°C° 0 mm 1 mps 737 mmHg 82%
    05:00 +16°C° 0 mm 0 mps 737 mmHg 83%
    06:00 +18°C° 0 mm 0 mps 737 mmHg 78%
    07:00 +22°C° 0 mm 1 mps 738 mmHg 73%
    08:00 +24°C° 0 mm 1 mps 738 mmHg 68%
    09:00 +26°C° 0.7 mm 1 mps 738 mmHg 64%
    10:00 +27°C° 0.7 mm 1 mps 738 mmHg 60%
    11:00 +28°C° 0.7 mm 2 mps 738 mmHg 56%
    12:00 +28°C° 0.2 mm 2 mps 738 mmHg 54%
    13:00 +29°C° 0.2 mm 2 mps 737 mmHg 52%
    14:00 +29°C° 0.2 mm 2 mps 737 mmHg 49%
    15:00 +28°C° 0.3 mm 2 mps 737 mmHg 54%
    16:00 +28°C° 0.3 mm 2 mps 737 mmHg 59%
    17:00 +27°C° 0.3 mm 2 mps 737 mmHg 64%
    18:00 +25°C° 1 mm 2 mps 737 mmHg 73%
    19:00 +21°C° 1 mm 2 mps 737 mmHg 81%
    20:00 +19°C° 1 mm 2 mps 737 mmHg 90%
    21:00 +18°C° 0.1 mm 2 mps 737 mmHg 90%
    22:00 +19°C° 0.1 mm 1 mps 737 mmHg 91%
    23:00 +18°C° 0.1 mm 1 mps 737 mmHg 92%
    Show more